Welcome to the New NWS' Forecast!
Most changes are behind the scenes, but click here for differences you might notice.
Latest weather observations around

Glens Falls, Floyd Bennett Memorial Airport (KGFL)

Using English Units (Switch to International System of Units)
Date/ Time (EST) Wind (mph) Vis. (mi) Weather Sky Cond. Temp (°F) Rel. Humidity Wind Chill (°F) Heat Index (°F) Pressure Precip. (in)
Air Dwpt 6 hour Altimeter (inHg) Sea level (inHg) 1 hr 3 hr 6 hr
Max Min
Nov 16 16:53 S 7 10 Mostly Cloudy FEW019 SCT041 BKN085 33 30     88% 27   29.68 29.7 0    
Nov 16 16:42 SSW 8 10 Mostly Cloudy FEW019 SCT035 BKN045 33 30     88% 26   29.68   0    
Nov 16 16:00 S 7 10 Cloudy SCT009 OVC021 33 31     92% 27   29.66        
Nov 16 15:53 S 7 10 Cloudy BKN009 OVC021 32 30     92% 26   29.66 29.68      
Nov 16 15:48 S 8 10 Cloudy BKN009 OVC021 32 30     93% 25   29.66        
Nov 16 15:35 S 6 9 Cloudy BKN010 BKN065 OVC080 32 30     92% 26   29.65        
Nov 16 15:09 S 7 10 Cloudy SCT008 BKN021 OVC032 32 30     92% 26   29.65        
Nov 16 14:53 S 8 10 Cloudy BKN008 OVC020 32 30     92% 25   29.66 29.68      
Nov 16 14:46 S 9 10 Cloudy BKN008 OVC020 32 30     92% 24   29.65        
Nov 16 14:10 S 8 10 Cloudy FEW008 BKN023 OVC048 32 30     92% 25   29.65        
Nov 16 13:53 SSE 7 10 Cloudy BKN008 BKN023 OVC050 32 30     92% 26   29.66 29.68      
Nov 16 13:44 SSE 8 10 Clear   32 29     88% 25   29.66        
Nov 16 13:24 S 6 6 Clear   31 29     92% 25   29.67        
Nov 16 13:14 S 7 7 Clear   31 29     92% 24   29.66        
Nov 16 12:53 S 6 10 Clear   31 28     89% 25   29.67 29.7     0
Nov 16 12:29 Calm 10 Cloudy BKN013 OVC048 32 28     85%     29.66        
Nov 16 11:53 E 7 10 Cloudy OVC050 30 27     88% 23   29.65 29.67      
Nov 16 11:31 E 3 10 Cloudy FEW012 OVC050 30 28     92% 27   29.67        
Nov 16 11:05 ESE 3 10 Cloudy BKN012 OVC060 30 28     92% 27   29.68        
Nov 16 10:53 E 6 10 Cloudy SCT010 OVC060 29 28     96% 23   29.68 29.7 0    
Nov 16 10:38 E 5 10 Cloudy SCT009 OVC060 29 28     96% 24   29.68   0    
Nov 16 10:24 ENE 3 5 Light Snow and Fog/Mist FEW010 BKN043 OVC065 29 28     96% 25   29.69   0    
Nov 16 10:16 ENE 5 3 Light Snow and Fog/Mist FEW010 BKN028 OVC060 29 28     96% 24   29.69   0    
Nov 16 10:07 ENE 6 2.5 Light Snow and Fog/Mist SCT010 BKN023 OVC035 29 28     96% 23   29.69   0    
Nov 16 09:53 NE 7 1.25 Light Snow and Fog/Mist FEW008 OVC019 29 27     92% 22   29.69 29.72 0 0  
Nov 16 09:46 NE 7 1 Light Snow and Fog/Mist VV017 28 27     96% 21   29.7   0    
Nov 16 09:24 NE 5 0.5 Snow and Fog FEW004 OVC011 28 28     100% 23   29.7   0    
Nov 16 09:07 NNE 6 0.5 Snow and Fog VV013 28 28     100% 22   29.71   0    
Nov 16 09:00 NNE 7 0.25 Snow and Fog VV013 28 28     100% 21   29.71   0    
Nov 16 08:48 NNE 8 0.5 Snow and Fog VV014 28 27     96% 20   29.72 29.75 0    
Nov 16 08:47 N 8 0.5 Snow and Fog VV014 28 27     93% 20   29.72   0    
Nov 16 08:39 N 11 1 Light Snow and Fog/Mist VV017 28 27     96% 18   29.73   0    
Nov 16 08:09 N 13 0.75 Light Snow and Fog/Mist VV015 28 27     96% 17   29.74   0    
Nov 16 07:53 NNW 13 0.75 Light Snow and Fog/Mist VV014 28 27     96% 17   29.76 29.78 0    
Nov 16 07:22 NNW 15 0.75 Light Snow and Fog/Mist VV014 28 27     96% 17   29.74   0    
Nov 16 07:07 NNW 16 0.75 Clear   28 27     96% 16   29.73   0    
Nov 16 06:53 NNW 17 1 Light Snow and Fog/Mist VV020 28 26     92% 16   29.73 29.76 0   0
Nov 16 06:39 N 13 2.5 Light Snow and Fog/Mist FEW020 BKN026 OVC034 28 26     92% 17   29.73   0    
Nov 16 05:53 N 13 6 Light Snow and Fog/Mist FEW028 OVC033 28 25     88% 17   29.72 29.75 0    
Nov 16 05:01 N 15 4 Light Snow and Fog/Mist OVC035 28 25     88% 17   29.73   0    
Nov 16 04:53 N 13 2.5 Light Snow and Fog/Mist OVC035 28 25     88% 17   29.74 29.77 0    
Nov 16 03:53 NNE 14 3 Light Snow and Fog/Mist FEW029 OVC039 28 26     92% 17   29.79 29.81 0 0  
Nov 16 02:53 N 10 5 Light Snow and Fog/Mist OVC041 28 26     92% 19   29.87 29.9 0    
Nov 16 02:11 N 8 3 Light Snow and Fog/Mist OVC037 27 25     92% 19   29.89   0    
Nov 16 01:53 N 8 2.5 Light Snow and Fog/Mist BKN031 OVC041 26 25     96% 18   29.9 29.93 0    
Nov 16 01:46 N 8 2.5 Light Snow and Fog/Mist FEW021 BKN031 OVC041 26 25     96% 18   29.91   0    
Nov 16 01:15 N 10 2 Light Snow and Fog/Mist BKN025 OVC037 25 24     96% 15   29.93   0    
Nov 16 00:53 N 9 1.75 Light Snow and Fog/Mist OVC019 25 24     96% 16   29.95 29.98 0   0
Nov 16 00:34 N 10 1 Light Snow and Fog/Mist VV012 25 24     96% 15   29.98   0    
Nov 16 00:22 N 9 0.75 Light Snow and Fog/Mist VV012 25 24     96% 16   29.99   0    
Nov 16 00:01 N 8 1 Light Snow and Fog/Mist VV010 25 24     96% 16   30.03   0    
Nov 15 23:53 N 8 0.75 Light Snow and Fog/Mist VV008 25 24     96% 16   30.03 30.06 0    
Nov 15 23:33 N 6 0.75 Light Snow and Fog/Mist VV014 25 24     96% 18   30.06   0    
Nov 15 22:53 NNE 7 1.5 Light Snow and Fog/Mist OVC018 24 23     96% 16   30.11 30.14 0    
Nov 15 22:36 N 8 1 Light Snow and Fog/Mist VV014 24 23     96% 15   30.12   0    
Nov 15 22:24 NNE 7 0.75 Light Snow and Fog/Mist VV013 24 22     91% 16   30.15   0    
Nov 15 21:53 N 7 1.5 Light Snow and Fog/Mist OVC017 23 22     96% 15   30.19 30.22 0 0  
Nov 15 21:48 N 7 1.25 Light Snow and Fog/Mist OVC015 23 21     93% 15   30.2   0    
Nov 15 21:41 N 6 1 Light Snow and Fog/Mist VV014 23 22     96% 16   30.2   0    
Nov 15 21:34 N 5 0.75 Light Snow and Fog/Mist VV013 23 22     96% 17   30.21   0    
Nov 15 20:53 NNW 5 1 Light Snow and Fog/Mist VV014 23 21     92% 17   30.25 30.29 0    
Nov 15 20:46 NNW 5 1 Light Snow and Fog/Mist VV014 23 21     92% 17   30.26   0    
Nov 15 20:35 Calm 1.25 Light Snow and Fog/Mist OVC015 23 20     88%     30.27   0    
Nov 15 20:26 Calm 0.75 Light Snow and Fog/Mist VV016 23 20     88%     30.28   0    
Nov 15 20:17 Calm 1.5 Light Snow OVC017 24 18     77%     30.28   0    
Nov 15 19:53 Calm 7 Cloudy BKN027 OVC034 25 14     63%     30.31 30.34      
Nov 15 18:53 Calm 10 Mostly Cloudy BKN110 25 15     66%     30.33 30.36      
Nov 15 17:53 Calm 10 Clear CLR 25 14     63%     30.36 30.39      
Nov 15 16:53 Calm 10 Clear CLR 25 12     57%     30.35 30.38      
Nov 15 15:53 N 3 10 Clear CLR 25 11     55% 21   30.37 30.41      
Nov 15 14:53 Calm 10 Clear CLR 25 10     53%     30.41 30.45      
Nov 15 13:53 Calm 10 Clear CLR 25 10     53%     30.44 30.47      
Nov 15 12:53 Calm 10 Clear CLR 24 11     57%     30.46 30.5      
Nov 15 11:53 Calm 10 Clear CLR 23 10     57%     30.5 30.54      
Nov 15 10:53 Calm 10 Clear CLR 22 10     60%     30.57 30.6      
Nov 15 09:53 Calm 10 Clear CLR 21 11     65%     30.58 30.61      
Nov 15 08:53 Calm 10 Clear CLR 19 12     74%     30.61 30.65      
Nov 15 07:53 Calm 10 Clear CLR 18 12     77%     30.61 30.64      
Nov 15 06:53 Calm 10 Clear CLR 17 13     83%     30.6 30.63      
Nov 15 05:53 Calm 10 Clear CLR 16 13     87%     30.62 30.65      
Nov 15 04:53 NE 3 10 Clear CLR 17 11     76% 12   30.6 30.63      
Nov 15 03:53 N 3 10 Clear CLR 16 11     80% 11   30.61 30.65      
Nov 15 02:53 Calm 10 Clear CLR 16 12     84%     30.63 30.66      
Nov 15 01:53 Calm 10 Clear CLR 17 12     80%     30.61 30.64      
Nov 15 00:53 NE 5 10 Clear CLR 19 8     62% 12   30.6 30.63      
Nov 14 23:53 Calm 10 Clear CLR 18 10     71%     30.62 30.65      
Nov 14 22:53 E 5 10 Clear CLR 18 10     71% 11   30.6 30.63      
Nov 14 21:53 Calm 10 Clear CLR 19 10     67%     30.57 30.61      
Nov 14 20:53 N 5 10 Clear CLR 20 9     62% 13   30.57 30.61      
Nov 14 19:53 NNW 7 10 Clear CLR 22 8     55% 13   30.56 30.59      
Nov 14 18:53 NW 8 10 Clear CLR 22 6     50% 13   30.53 30.56      
Nov 14 17:53 5 10 Clear CLR 24 5     43% 18   30.53 30.57      
Nov 14 16:53 NNW 9 10 Clear CLR 25 5     42% 16   30.51 30.54      
Nov 14 15:53 WNW 16 10 Clear CLR 27 4     37% 15   30.47 30.5      
Nov 14 14:53   10 Mostly Clear FEW070 28 7     40%     30.44 30.47      
Nov 14 12:53 WNW 6 10 Mostly Cloudy BKN070 28 9     44% 22   30.39 30.41      
Nov 14 11:53 WNW 9 10 Mostly Cloudy BKN070 28 7     40% 19   30.39 30.42      
Nov 14 10:53 Calm 10 Cloudy BKN070 OVC080 27 6     40%     30.38 30.41      
Nov 14 09:53 Calm 10 Mostly Cloudy BKN070 26 5     40%     30.38 30.4      
Nov 14 08:53 WNW 17 10 Mostly Cloudy BKN075 25 7     46% 12   30.35 30.38      
Nov 14 07:53 WNW 16 10 Mostly Cloudy BKN075 26 7     44% 14   30.31 30.33      
Nov 14 06:53 NW 11 10 Mostly Cloudy BKN060 26        % 16   30.26 30.29      
Nov 14 05:53 WNW 11 10 Partly Cloudy SCT070 28        % 18   30.21 30.24      
Nov 14 04:53 SW 5 10 Mostly Cloudy FEW050 BKN075 25        % 19   30.17 30.2      
Nov 14 03:53 WSW 5 10 Mostly Clear FEW070 25        % 19   30.14 30.16      
Nov 14 02:53 W 6 10 Clear CLR 25 18     74% 18   30.12 30.15      
Nov 14 01:53 SSE 3 10 Clear CLR 23 21     92% 19   30.11 30.14      
Nov 14 00:53 Calm 10 Clear CLR 27 18     68%     30.11 30.13     0
Nov 13 23:53 N 8 10 Cloudy BKN050 OVC060 29 18     63% 21   30.12 30.14      
Nov 13 22:53 N 10 10 Cloudy OVC047 29 19     66% 20   30.1 30.12      
Nov 13 21:53 NNW 16 10 Cloudy SCT040 OVC050 30 20     66% 19   30.08 30.11   0  
Nov 13 20:53 NNW 11 10 Cloudy BKN050 OVC060 33 26     75% 24   30.02 30.04      
Nov 13 19:53 N 15 10 Cloudy FEW034 BKN044 OVC055 35 29     78% 26   29.98 30 0    
Nov 13 19:26 NNE 5 10 Cloudy FEW025 SCT033 OVC048 35 34     96% 31   29.97   0    
Nov 13 19:17 NNW 5 7 Rain SCT023 BKN029 OVC055 36 34     92% 32   29.96   0    
Nov 13 18:53 SW 6 10 Cloudy BKN042 BKN050 OVC060 35 34     96% 30   29.94 29.96      
Nov 13 17:53 Calm 6 Fog/Mist OVC050 34 34     100%     29.93 29.95      
Nov 13 16:53 S 3 10 Partly Cloudy FEW041 SCT055 34 34     100% 31   29.92 29.94      
Nov 13 15:53 S 3 4 Fog/Mist BKN036 BKN045 OVC120 34 34     100% 31   29.9 29.93      
Nov 13 14:53 Calm 10 Cloudy OVC030 35 35     100%     29.89 29.91      
Nov 13 13:53 Calm 10 Mostly Cloudy BKN120 35 34     96%     29.9 29.91      
Nov 13 12:53 WNW 6 10 Cloudy SCT029 OVC060 34 34     100% 29   29.93 29.95 0   0
Nov 13 12:50 NW 6 10 Cloudy FEW003 FEW027 OVC060 34 34     100% 29   29.92   0    
Nov 13 11:53 Calm 5 Light Rain and Fog/Mist FEW030 OVC044 33 33     100%     29.94 29.96 0    
Nov 13 11:37 Calm 10 Cloudy FEW005 OVC044 33 33     100%     29.95   0    
Nov 13 11:22 Calm 5 Light Rain and Fog/Mist FEW003 BKN016 OVC044 33 32     96%     29.96   0    
Nov 13 10:53 Calm 3 Light Snow and Fog/Mist BKN006 OVC020 32 32     100%     29.98 30 0    
Nov 13 10:45 Calm 3 Unknown Precipitation and Fog/Mist SCT004 BKN008 OVC025 32 32     100%     29.98   0    
Nov 13 10:41 Calm 2.5 Light Snow and Fog/Mist SCT006 OVC031 32 32     100%     29.98   0    
Nov 13 10:32 Calm 1.75 Light Snow and Fog/Mist FEW006 OVC027 32 32     100%     29.99   0    
Nov 13 10:02 Calm 2 Light Snow and Fog/Mist FEW012 OVC017 32 32     100%     30.01   0    
Nov 13 09:53 Calm 1.5 Light Snow and Fog/Mist OVC012 32 32     100%     30.03 30.05 0 0  
Nov 13 08:53 Calm 1.5 Light Snow and Fog/Mist OVC011 32 32     100%     30.06 30.08 0    
Nov 13 08:48 N 3 1.75 Light Snow and Fog/Mist OVC011 32 32     100% 29   30.05   0    
Nov 13 08:21 N 5 1.5 Light Snow and Fog/Mist FEW005 BKN008 OVC013 32 32     100% 27   30.07   0    
Nov 13 07:53 NNE 3 1.5 Light Snow and Fog/Mist FEW007 BKN012 OVC036 32 32     100% 29   30.08 30.1 0    
Nov 13 07:47 NNE 5 1.75 Light Snow and Fog/Mist FEW007 BKN025 OVC036 32 32     100% 27   30.08   0    
Nov 13 07:26 NNE 3 2 Unknown Precipitation and Fog/Mist FEW011 OVC038 32 32     100% 29   30.08   0    
Nov 13 07:12 NNE 3 1.75 Light Snow and Fog/Mist SCT011 OVC038 32 32     100% 29   30.09   0    
Nov 13 07:05 Calm 2.5 Light Snow and Fog/Mist BKN011 OVC034 32 32     100%     30.1   0    
Nov 13 06:53 Calm 2.5 Light Snow and Fog/Mist BKN007 OVC010 32 32     100%     30.1 30.12 0   0
Nov 13 06:49 N 3 2.5 Light Snow and Fog/Mist OVC005 32 32     100% 29   30.1   0    
Nov 13 06:20 N 3 2 Light Snow and Fog/Mist OVC003 32 32     100% 29   30.1   0    
Nov 13 06:01 N 5 1 Light Snow and Fog/Mist BKN003 OVC007 32 32     100% 27   30.11   0    
Nov 13 05:53 N 3 0.75 Light Snow and Fog/Mist BKN003 OVC007 32 32     100% 29   30.12 30.14 0    
Nov 13 05:21 Calm 0.75 Light Snow and Fog/Mist VV005 32 32     100%     30.14   0    
Nov 13 05:07 Calm 0.75 Light Snow and Fog/Mist BKN003 OVC008 32 32     100%     30.16   0    
Nov 13 04:53 Calm 0.75 Light Snow and Fog/Mist OVC002 32 32     100%     30.16 30.18 0    
Nov 13 04:46 Calm 0.75 Light Snow and Fog/Mist OVC002 32 32     100%     30.16   0    
Nov 13 04:39 Calm 1 Light Snow and Fog/Mist OVC002 32 32     100%     30.17   0    
Nov 13 04:23 E 3 1 Light Snow and Fog/Mist OVC004 32 32     100% 29   30.17   0    
Nov 13 04:04 Calm 1.5 Light Snow and Fog/Mist BKN005 OVC013 32 32     100%     30.18   0    
Nov 13 03:53 SE 3 1.5 Light Snow and Fog/Mist SCT006 OVC014 32 32     100% 29   30.19 30.21 0 0  
Nov 13 03:47 SSE 5 1.75 Light Snow and Fog/Mist FEW006 OVC014 34 34     100% 29   30.19   0    
Nov 13 03:38 SSE 5 2.5 Light Snow and Fog/Mist FEW006 OVC015 33 33     100% 29   30.2   0    
Nov 13 02:53 SW 7 7 Light Rain OVC022 35 34     96% 29   30.23 30.25 0    
Nov 13 02:36 SSW 10 7 Light Rain OVC024 36 33     89% 29   30.23   0    
Nov 13 01:53 S 11 10 Cloudy BKN055 OVC075 40 29     65% 33   30.23 30.24      
Nov 13 00:53 Calm 10 Cloudy SCT046 BKN060 OVC090 40 30     67%     30.24 30.26 0   0
Nov 12 23:53 Calm 10 Cloudy OVC065 35 32     88%     30.28 30.29      
Nov 12 22:53 Calm 10 Cloudy SCT060 OVC075 36 31     82%     30.28 30.31      
Nov 12 21:53 Calm 10 Cloudy BKN060 OVC075 36 32     85%     30.3 30.33      
Nov 12 20:53 Calm 10 Cloudy OVC070 35 31     85%     30.32 30.34      
Nov 12 19:53 Calm 10 Mostly Cloudy BKN095 BKN110 35 30     82%     30.3 30.33      
Nov 12 18:53 Calm 10 Mostly Clear FEW110 36 28     73%     30.31 30.34      
Nov 12 17:53 Calm 10 Mostly Cloudy BKN120 38 28     67%     30.33 30.36      
Nov 12 16:53 S 5 10 Clear CLR 41 26     55% 38   30.35 30.37      
Nov 12 15:53 S 6 10 Clear CLR 41 26     55% 37   30.34 30.36      
Nov 12 14:53 SSE 10 10 Clear CLR 43 27     53% 37   30.32 30.35      
Nov 12 13:53 SE 8 10 Clear CLR 44 27     51% 40   30.33 30.35      
Nov 12 12:53 SSW 8 10 Clear CLR 44 27     51% 40   30.33 30.35      
Nov 12 11:53 S 7 10 Mostly Clear FEW065 41 28     60% 36   30.36 30.38      
Nov 12 10:53 5 10 Partly Cloudy SCT070 37 28     70% 33   30.39 30.41      
Nov 12 09:53 S 6 10 Mostly Clear FEW070 34 27     75% 29   30.39 30.42      
Nov 12 08:53 Calm 10 Cloudy OVC070 30 27     88%     30.4 30.43      
Nov 12 07:53 Calm 10 Mostly Clear FEW075 25 24     96%     30.39 30.42      
Nov 12 06:53 Calm 10 Clear CLR 23 21     92%     30.38 30.42      
Nov 12 05:53 Calm 10 Clear CLR 25 23     92%     30.38 30.4      
Nov 12 04:53 Calm 10 Cloudy OVC075 27 24     89%     30.36 30.39      
Nov 12 03:53 Calm 10 Cloudy OVC080 28 25     88%     30.36 30.39      
Nov 12 02:53 Calm 10 Cloudy OVC080 28 25     88%     30.36 30.38      
Nov 12 01:53 WNW 3 10 Cloudy OVC080 28 25     88% 24   30.37 30.39      
Nov 12 00:53 Calm 10 Cloudy OVC085 28 25     88%     30.36 30.38      
Nov 11 23:53 Calm 10 Cloudy FEW047 OVC090 27 24     89%     30.36 30.39      
Nov 11 22:53 Calm 10 Cloudy OVC049 26 23     88%     30.35 30.38      
Nov 11 21:53 Calm 10 Mostly Clear FEW065 23 20     88%     30.36 30.38      
Nov 11 20:53 Calm 10 Clear CLR 24 21     88%     30.34 30.37      
Nov 11 19:53 Calm 10 Clear CLR 25 21     85%     30.34 30.37      
Nov 11 18:53 Calm 10 Clear CLR 25 22     88%     30.33 30.36      
Nov 11 17:53 Calm 10 Clear CLR 29 20     69%     30.32 30.34      
Nov 11 16:53 W 7 10 Clear CLR 35 17     47% 29   30.3 30.33      
Nov 11 15:53 W 7 10 Clear CLR 37 17     44% 32   30.29 30.32      
Nov 11 14:53 W 15 10 Clear CLR 38 15     39% 29   30.29 30.31      
Nov 11 13:53 WNW 14 10 Clear CLR 39 15     37% 31   30.29 30.31      
Nov 11 12:53 W 10 10 Clear CLR 39 14     36% 32   30.28 30.31      
Nov 11 11:53 W 13 10 Clear CLR 38 11     32% 30   30.29 30.31      
Nov 11 10:53 W 14 10 Clear CLR 36 10     34% 27   30.3 30.32      
Nov 11 09:53 WNW 15 10 Clear CLR 35 13     40% 26   30.3 30.32      
Nov 11 08:53 W 10 10 Clear CLR 34 15     45% 26   30.3 30.32      
Nov 11 07:53 6 10 Partly Cloudy SCT044 32 20     61% 26   30.29 30.31      
Nov 11 06:53 WSW 3 10 Mostly Cloudy BKN048 25 23     92% 21   30.26 30.29      
Nov 11 05:53 Calm 10 Mostly Cloudy BKN050 26 20     77%     30.25 30.28      
Nov 11 04:53 Calm 10 Partly Cloudy SCT050 27 19     72%     30.24 30.27      
Nov 11 03:53 W 5 10 Partly Cloudy SCT055 29 17     61% 24   30.22 30.25      
Nov 11 02:53 W 3 10 Clear CLR 29 17     61% 25   30.21 30.23      
Nov 11 01:53 W 6 10 Clear CLR 30 16     55% 24   30.18 30.21      
Nov 11 00:53 W 11 10 Clear CLR 31 17     56% 22   30.15 30.17      
Nov 10 23:53 WSW 9 10 Clear CLR 32 18     56% 24   30.12 30.15      
Nov 10 22:53 W 9 10 Clear CLR 33 18     53% 25   30.09 30.11      
Nov 10 21:53   10 Clear CLR 34 21     59%     30.07 30.08      
Nov 10 20:53 W 6 10 Clear CLR 34 23     64% 29   30.04 30.06      
Nov 10 19:53 7 10 Mostly Cloudy BKN043 34 23     64% 28   30.01 30.03      
Nov 10 18:53 W 9 10 Mostly Clear FEW038 33 22     63% 25   30 30.02      
Nov 10 17:53 WSW 8 10 Clear CLR 33 21     61% 26   29.96 29.98      
Nov 10 16:53 WSW 13 10 Clear CLR 33 17     51% 24   29.94 29.96      
Nov 10 15:53 W 16 10 Clear CLR 35 15     44% 25   29.92 29.94      
Nov 10 14:53 W 13 10 Mostly Clear FEW065 37 14     38% 29   29.9 29.92      
Nov 10 13:53 W 14 10 Mostly Clear FEW070 37 16     42% 28   29.88 29.89      
Nov 10 12:53 WSW 18 10 Mostly Clear FEW070 40 17     39% 31   29.84 29.86      
Nov 10 11:53   10 Clear CLR 39 21     48%     29.82 29.84      
Nov 10 10:53 W 13 10 Cloudy OVC090 40 24     53% 32   29.8 29.82      
Nov 10 09:53 W 9 10 Partly Cloudy SCT041 SCT047 41 30     65% 35   29.79 29.81      
Nov 10 08:53 SW 8 10 Mostly Clear FEW080 38 33     82% 32   29.79 29.81      
Nov 10 07:53 SW 5 10 Cloudy SCT032 OVC065 39 35     86% 36   29.78 29.8      
Nov 10 07:30 Calm 10 Cloudy FEW022 SCT031 OVC065 38 38     100%     29.78        
Nov 10 07:19 WNW 6 10 Cloudy SCT003 BKN023 OVC035 38 38     100% 33   29.78        
Nov 10 06:53 SSW 5 10 Cloudy OVC003 38 38     100% 34   29.77 29.79     0
Nov 10 06:32 S 5 8 Cloudy BKN002 OVC065 38 38     100% 34   29.76        
Nov 10 05:53 SSW 6 8 Cloudy OVC003 38 38     100% 33   29.76 29.78 0    
Nov 10 05:14 Calm 10 Light Rain OVC003 38 38     100%     29.76   0    
Nov 10 04:53 Calm 10 Light Rain OVC005 38 38     100%     29.77 29.78 0    
Nov 10 04:28 Calm 3 Light Rain and Fog/Mist BKN005 BKN010 OVC014 37 37     100%     29.77   0    
Nov 10 04:18 Calm 2.5 Light Rain and Fog/Mist FEW006 OVC014 37 37     100%     29.77   0    
Nov 10 03:53 Calm 4 Unknown Precipitation and Fog/Mist OVC021 37 37     100%     29.77 29.79 0 0  
Nov 10 02:53 Calm 6 Light Rain and Fog/Mist BKN028 OVC050 37 37     100%     29.8 29.81 0    
Nov 10 02:27 Calm 6 Light Rain and Fog/Mist SCT022 OVC032 38 37     97%     29.8   0    
Nov 10 01:53 WNW 5 6 Light Rain and Fog/Mist BKN021 OVC031 38 37     97% 34   29.81 29.82 0    
Nov 10 01:48 NW 5 7 Light Rain SCT023 OVC031 37 37     100% 34   29.8   0    
Nov 10 00:53 NW 6 5 Rain and Fog/Mist SCT018 OVC025 38 37     97% 33   29.8 29.82 0   0
Nov 10 00:11 NW 6 6 Light Rain and Fog/Mist BKN018 OVC030 37 37     100% 32   29.81   0    
Nov 09 23:53 NW 5 5 Rain and Fog/Mist SCT017 OVC030 37 37     100% 33   29.83 29.85 0    
Nov 09 23:27 NNW 6 5 Light Rain and Fog/Mist SCT027 OVC037 37 37     100% 32   29.84   0    
Nov 09 22:53 N 3 5 Light Rain and Fog/Mist BKN027 OVC032 36 36     100% 33   29.86 29.88 0    
Nov 09 22:16 NNW 3 8 Light Rain FEW019 BKN027 OVC031 36 36     100% 33   29.9   0    
Nov 09 21:53 N 3 6 Light Rain and Fog/Mist FEW031 OVC043 36 36     100% 33   29.91 29.93 0 0  
Nov 09 20:53 NNW 7 8 Light Rain BKN049 OVC070 35 34     96% 29   29.95 29.97 0    
Nov 09 20:13 NW 3 10 Light Rain FEW022 SCT027 OVC046 34 34     100% 31   29.98   0    
Nov 09 19:53 Calm 7 Light Rain BKN022 OVC026 34 34     100%     30 30.02 0    
Nov 09 18:53 Calm 6 Rain and Fog/Mist OVC021 33 33     100%     30.07 30.09 0   0
Nov 09 17:59 N 5 3 Light Snow and Fog/Mist SCT006 OVC018 32 32     100% 27   30.11   0    
Nov 09 17:53 N 5 2 Light Snow and Fog/Mist BKN006 OVC014 33 33     100% 29   30.12 30.14 0    
Nov 09 17:51 N 5 2 Light Snow and Fog/Mist BKN006 OVC014 34 34     100% 29   30.12   0    
Nov 09 17:18 E 5 6 Rain and Fog/Mist BKN008 OVC014 36 35     96% 32   30.14   0    
Nov 09 17:01 ENE 3 6 Rain and Fog/Mist FEW008 BKN014 OVC021 36 36     100% 33   30.15   0    
Nov 09 16:53 ENE 5 7 Light Rain FEW014 OVC021 37 36     96% 33   30.15 30.17 0    
Nov 09 15:53 N 6 5 Light Rain and Fog/Mist OVC020 36 35     96% 31   30.18 30.2 0 0  
Nov 09 15:28 NNW 5 7 Light Rain OVC025 37 36     96% 33   30.19   0    
Nov 09 14:53 N 5 10 Light Rain OVC030 38 35     89% 34   30.2 30.22 0    
Nov 09 14:14 3 4 Light Rain OVC025 39 33     79% 37   30.21   0    
Nov 09 13:53 NNE 3 10 Cloudy BKN050 OVC065 40 34     79% 38   30.23 30.25      
Nov 09 12:53 Calm 10 Cloudy OVC110 41 34     76%     30.25 30.27      
Nov 09 11:53 SE 3 10 Mostly Cloudy BKN110 40 34     79% 38   30.27 30.29      
Nov 09 10:53 Calm 10 Mostly Clear FEW110 40 35     83%     30.31 30.33      
Nov 09 09:53 Calm 10 Clear CLR 38 34     85%     30.32 30.34      
Nov 09 08:53 Calm 10 Clear CLR 36 33     89%     30.32 30.33      
Nov 09 07:53 Calm 10 Clear CLR 32 32     100%     30.35 30.37      
Nov 09 06:53 Calm 10 Clear CLR 28 27     96%     30.35 30.37      
Nov 09 05:53 Calm 10 Clear CLR 28 27     96%     30.36 30.38      
Nov 09 04:53 Calm 10 Clear CLR 28 27     96%     30.37 30.39      
Nov 09 03:53 Calm 10 Clear CLR 30 30     100%     30.36 30.38      
Nov 09 02:53 WNW 6 10 Clear CLR 33 31     92% 28   30.35 30.37      
Nov 09 01:53 Calm 10 Clear CLR 32 31     96%     30.35 30.37      
Nov 09 00:53 WNW 3 10 Mostly Cloudy BKN050 36 33     89% 33   30.35 30.37      
Nov 08 23:53 Calm 10 Cloudy OVC060 39 33     79%     30.35 30.37      
Nov 08 22:53 Calm 10 Cloudy OVC060 41 33     73%     30.34 30.36      
Nov 08 21:53 SW 3 10 Cloudy OVC060 41 32     70% 39   30.34 30.36      
Nov 08 20:53 W 3 10 Cloudy OVC060 42 32     67% 40   30.33 30.35      
Nov 08 19:53 W 7 10 Cloudy OVC055 43 32     65% 39   30.32 30.34      
Nov 08 18:53 SW 6 10 Cloudy OVC055 44 31     60% 41   30.31 30.32      
Nov 08 17:53 WNW 8 10 Cloudy OVC055 44 30     58% 40   30.29 30.3      
Nov 08 16:53 W 3 10 Cloudy OVC055 44 31     60% 43   30.26 30.28      
Nov 08 15:53 NW 5 10 Cloudy OVC055 46 32     58% 44   30.25 30.26      
Nov 08 14:53 W 5 10 Cloudy SCT041 OVC055 46 32     58% 44   30.25 30.26      
Nov 08 13:53 WNW 8 10 Cloudy OVC055 46 32     58% 42   30.23 30.24      
Nov 08 12:53 W 8 10 Cloudy OVC050 46 32     58% 42   30.22 30.23      
Nov 08 11:53 SW 9 10 Cloudy OVC050 46 32     58% 41   30.21 30.22      
Nov 08 10:53 SW 9 10 Cloudy OVC047 45 33     63% 40   30.21 30.23      
Nov 08 09:53 SW 6 10 Cloudy OVC045 44 32     62% 41   30.21 30.23      
Nov 08 08:53 W 6 10 Cloudy OVC044 44 32     62% 41   30.19 30.2      
Nov 08 07:53 SW 6 10 Cloudy OVC042 43 32     65% 39   30.17 30.19      
Nov 08 06:53 WSW 7 10 Cloudy OVC042 43 31     62% 39   30.16 30.17      
Nov 08 05:53 SW 7 10 Cloudy OVC042 43 30     60% 39   30.14 30.15      
Nov 08 04:53 SSW 5 10 Cloudy OVC042 42 31     64% 39   30.13 30.15      
Nov 08 03:53 SSW 8 10 Cloudy OVC043 42 30     62% 37   30.12 30.13      
Nov 08 02:53 SW 8 10 Cloudy OVC042 43 30     60% 38   30.11 30.12      
Nov 08 01:53 SSW 8 10 Cloudy OVC045 42 31     64% 37   30.1 30.11      
Nov 08 00:53 S 7 10 Mostly Clear FEW048 43 30     60% 39   30.07 30.08      
Nov 07 23:53 W 6 10 Clear CLR 43 30     60% 39   30.04 30.05      
Nov 07 22:53 W 11 10 Clear CLR 45 30     56% 39   30.02 30.03      
Nov 07 21:53 W 9 10 Clear CLR 46 31     55% 41   30.01 30.02      
Nov 07 20:53 W 8 10 Clear CLR 47 31     53% 43   29.98 29.99      
Nov 07 19:53 W 10 10 Cloudy OVC090 47 36     65% 42   29.96 29.97      
Nov 07 18:53 W 3 10 Mostly Clear FEW090 46 34     63% 45   29.91 29.92      
Nov 07 17:53 SW 5 10 Clear CLR 42 37     82% 39   29.9 29.92      
Nov 07 16:53 WSW 6 10 Clear CLR 52 34     50%     29.88 29.89      
Nov 07 15:53 WSW 9 10 Clear CLR 54 34     47%     29.87 29.87      
Nov 07 14:53 WSW 14 10 Clear CLR 55 34     45%     29.86 29.87      
Nov 07 13:53 W 16 10 Mostly Clear FEW055 55 33     43%     29.86 29.86      
Nov 07 12:53 WSW 13 10 Mostly Cloudy BKN060 54 36     50%     29.86 29.87      
Nov 07 11:53 SW 14 10 Cloudy OVC055 54 37     53%     29.87 29.88      
May 15 04:53 Calm 10 Mostly Cloudy BKN090 56 54     93%     29.8 29.79      
May 14 03:42 SSW 7 10 Cloudy BKN014 BKN026 OVC039 53 49     86%     29.98        
May 13 22:53 SSW 10 10 Clear CLR 53 48     83%     30.03 30.03      
May 13 18:53 SSW 9 10 Clear CLR 66 44     45%     29.99 30      
Notice The following observation data may not be complete
May 13 00:13 Calm 0.75 Fog/Mist VV003   35      %     30.15        
May 12 11:53 5 10 Cloudy OVC065 51 33     50%     30.16 30.17 0    
May 12 10:53 Calm 10 Light Rain BKN085 OVC120 50 33     52%     30.17 30.19 0 0  
May 11 15:53   10 Clear CLR 60 31     33%     30.03 30.03      
Jun 09 08:53 S 5 10 Mostly Cloudy BKN070 64 51     63%     29.71 29.7      
Jun 07 20:15 Calm 10 Mostly Clear FEW002 64 52     65%     29.98